Regional Weather Roundup
Issued by NWS Charleston, WV

Home | Current Version | Previous Version | Graphics & Text | Print | Product List | Glossary On
Versions: 1 2 3 4 5 6 7 8 9 10 11 12 13 14 15 16 17 18 19 20 21 22 23 24 25 26 27 28
000
ASUS41 KRLX 170510
RWRRLX
West Virginia Regional Weather Roundup
National Weather Service Charleston WV
100 AM EDT THU APR 17 2014

Note: "fair" indicates few or no clouds below 12,000 feet with no
significant weather and/or obstructions to visibility.

WVZ003-170600-
Northern Panhandle of West Virginia

CITY           SKY/WX    TMP DP  RH WIND       PRES   REMARKS
WHEELING       PTCLDY    36  17  46 E12       30.37R
$$

WVZ009-170600-
Northwest West Virginia

CITY           SKY/WX    TMP DP  RH WIND       PRES   REMARKS
PARKERSBURG    MOCLDY    39  19  44 E5        30.36S
$$

WVZ006-170600-
Western West Virginia

CITY           SKY/WX    TMP DP  RH WIND       PRES   REMARKS
HUNTINGTON     PTCLDY    42  21  43 E7        30.28S
$$

WVZ015-170600-
West Central West Virginia

CITY           SKY/WX    TMP DP  RH WIND       PRES   REMARKS
CHARLESTON     PTCLDY    41  23  48 E6        30.31R
$$

WVZ031-170600-
North Central West Virginia

CITY           SKY/WX    TMP DP  RH WIND       PRES   REMARKS
CLARKSBURG     MOCLDY    40  17  39 E8        30.37R
MORGANTOWN     PTCLDY    41  13  31 E7        30.39R
$$

WVZ035-042-045-170600-
South Central West Virginia

CITY           SKY/WX    TMP DP  RH WIND       PRES   REMARKS
BECKLEY        CLEAR     39  19  44 SE13G26   30.34R
BLUEFIELD      CLEAR     40  19  43 SE12G23   30.35R
LEWISBURG      CLEAR     38  14  38 SE5       30.40R
$$

WVZ047-170600-
Northern Mountains of West Virginia

CITY           SKY/WX    TMP DP  RH WIND       PRES   REMARKS
ELKINS         PTCLDY    40  15  36 SE12G17   30.38R
$$

WVZ052-170600-
Eastern Panhandle of West Virginia

CITY           SKY/WX    TMP DP  RH WIND       PRES   REMARKS
MARTINSBURG    CLEAR     34  20  56 CALM      30.53R
PETERSBURG     PTCLDY    35  31  85 CALM      30.50R
$$



USA.gov is the U.S. government's official web portal to all federal, state and local government web resources and services.